Vorticity
9 3 -1 0 3 4 4 4 5 5 6 6 7 6 6 7 6 7 5 10 -12 30 6 12 -2 23 7 -2 -4 14 3 9 10 2 6 7 11 10 9 10 8 6 7
17 -5 5 4 10 1 3 4 4 4 6 5 4 4 8 8 8 -2 -9 20 55 14 10 5 0 16 22 -13 4 21 8 10 -9 14 4 13 9 6 10 10 8 7 7
19 28 3 7 13 15 11 7 8 6 7 12 13 11 1 24 46 34 23 47 1 4 6 11 -6 11 -23 44 6 -9 15 13 11 9 5 11 6 7 9 9 6 6 6
8 19 31 27 21 17 14 13 8 15 13 8 -9 4 7 10 18 25 7 8 0 3 15 9 -4 -14 20 15 10 -9 -3 20 5 2 12 5 6 8 10 7 5 7 7
5 7 9 5 8 12 10 8 7 11 13 17 10 21 9 7 6 11 8 6 7 13 8 9 -12 23 -55 27 -22 28 11 1 3 7 8 7 8 12 7 8 10 8 0
7 5 8 4 10 6 10 11 12 10 6 7 4 4 8 8 3 5 7 6 8 14 5 -7 18 -8 50 9 17 14 -14 3 10 10 9 9 10 9 10 5 3 8 7
3 4 4 8 5 -1 9 7 4 6 10 9 7 5 7 2 2 7 25 3 26 3 -9 -25 15 17 -1 11 15 -9 -0 14 15 7 8 10 11 -0 9 12 6 8 8
5 8 9 4 8 4 8 4 7 6 7 6 10 9 9 11 14 13 14 -13 38 7 2 16 37 19 -4 14 -6 4 18 8 9 6 9 13 6 6 7 8 13 8 12
6 8 9 9 -0 12 5 4 6 7 8 12 12 13 16 16 19 13 6 9 -1 -21 54 16 -28 23 8 4 9 11 8 6 0 15 11 2 8 17 13 9 5 14 14
23 11 9 5 8 8 6 5 10 13 11 4 8 12 11 12 9 3 11 11 13 -8 -1 20 -2 15 8 6 8 8 7 11 13 3 -4 6 2 5 1 3 14 10 11
15 17 12 12 10 10 10 15 11 6 6 7 9 14 12 21 16 14 -2 -14 10 6 18 12 23 0 3 7 13 0 -1 3 5 12 10 16 19 14 16 17 13 12 9
12 12 12 12 12 12 12 9 7 8 9 9 15 12 7 13 9 3 1 0 4 19 22 6 8 13 13 10 8 13 12 15 10 7 11 16 16 18 14 13 11 11 10
13 13 13 12 12 11 9 9 11 11 11 10 10 12 14 8 2 10 11 21 20 10 6 3 -0 0 9 14 19 15 12 9 16 23 20 17 14 13 12 11 10 9 8
5 6 7 9 10 12 12 11 8 4 9 13 10 8 13 12 8 20 16 5 4 3 -1 4 9 10 11 13 13 12 14 14 11 11 14 13 14 14 11 8 10 11 8
7 6 6 8 10 10 10 10 11 8 8 8 13 14 13 9 3 0 1 4 7 10 14 15 14 13 12 12 12 11 11 14 14 14 15 14 10 8 10 11 11 12 13
8 9 12 16 17 18 16 13 10 10 9 8 6 4 6 7 7 9 12 14 12 11 12 13 12 12 12 13 14 13 13 13 12 10 7 9 11 12 13 15 15 15 16
11 14 14 15 14 12 11 9 8 9 10 11 13 15 17 15 11 8 10 11 12 12 10 12 12 12 11 11 11 9 8 9 12 12 12 14 15 15 15 16 15 16 16
14 12 10 10 9 8 10 13 14 13 11 8 8 9 10 9 9 9 8 8 8 8 8 8 8 9 9 9 10 10 11 13 15 15 15 15 15 15 16 16 17 18 18
8 9 12 13 14 13 10 9 9 10 9 9 9 8 7 8 8 9 10 10 11 11 12 13 13 14 15 16 16 15 15 16 16 16 16 16 17 17 18 18 18 17 17
13 17 13 9 10 10 9 7 7 6 7 8 9 10 11 13 12 12 12 12 12 13 13 14 15 16 17 18 18 18 18 18 18 17 17 17 17 17 17 15 15 15 15
11 9 10 7 6 6 6 8 9 10 10 10 10 10 9 10 12 14 15 15 16 18 18 18 19 19 19 19 19 18 18 18 18 17 17 16 16 16 14 14 15 15 16
8 7 6 7 8 9 10 9 9 9 10 11 12 13 15 16 17 18 20 21 22 22 23 22 22 22 21 20 19 18 18 18 17 17 17 16 16 15 14 14 14 13 14
7 8 9 8 7 8 10 11 11 13 14 16 17 18 18 19 21 23 24 25 26 25 24 23 22 21 19 18 18 17 17 17 17 17 16 17 17 15 13 14 14 13 14
9 7 7 9 11 11 12 14 15 14 14 15 16 19 21 23 24 23 22 19 17 16 15 16 16 16 17 17 17 17 17 17 17 16 16 17 15 13 13 15 15 16 16
8 9 11 12 13 13 13 12 13 15 18 20 21 22 21 19 18 16 15 15 15 15 14 14 14 15 16 16 17 17 17 17 16 15 15 14 14 14 14 15 14 16 18
10 12 13 13 12 11 12 14 16 18 19 18 17 15 15 15 14 13 13 13 13 14 14 15 15 16 16 16 16 16 15 15 14 14 14 15 15 15 16 15 14 16 18
Height
3064 3068 3070 3072 3074 3075 3076 3078 3080 3081 3082 3083 3085 3086 3085 3084 3085 3083 3080 3078 3076 3080 3081 3081 3081 3079 3078 3073 3074 3072 3070 3069 3066 3066 3065 3064 3062 3061 3060 3056 3053 3050 3047
3060 3062 3065 3065 3067 3068 3070 3073 3074 3076 3077 3078 3078 3078 3075 3072 3069 3068 3069 3062 3064 3068 3071 3070 3070 3070 3068 3067 3064 3062 3061 3060 3057 3056 3055 3054 3051 3049 3048 3045 3043 3040 3037
3055 3057 3060 3060 3061 3063 3065 3066 3067 3068 3069 3069 3069 3067 3065 3060 3056 3057 3055 3055 3059 3060 3060 3061 3061 3059 3059 3057 3053 3053 3051 3049 3047 3044 3044 3041 3039 3037 3036 3033 3030 3028 3025
3052 3054 3055 3056 3057 3058 3059 3059 3060 3060 3060 3060 3059 3052 3055 3053 3051 3049 3050 3050 3051 3051 3052 3052 3050 3046 3046 3045 3045 3043 3041 3038 3035 3033 3031 3029 3027 3025 3023 3020 3018 3016 3012
3047 3048 3049 3049 3049 3050 3051 3052 3053 3052 3052 3052 3051 3048 3047 3047 3045 3045 3044 3043 3043 3042 3041 3040 3038 3037 3035 3033 3033 3031 3028 3027 3024 3021 3019 3016 3014 3012 3009 3007 3003 3001 2998
3041 3042 3043 3043 3043 3043 3043 3043 3043 3044 3043 3042 3041 3040 3039 3039 3039 3038 3037 3035 3033 3031 3031 3029 3027 3026 3023 3018 3021 3019 3017 3014 3012 3008 3006 3003 3001 2998 2996 2993 2990 2986 2982
3034 3035 3036 3036 3036 3036 3036 3035 3035 3035 3034 3033 3032 3032 3031 3030 3030 3028 3026 3025 3023 3019 3018 3016 3013 3013 3012 3012 3011 3008 3005 3001 2998 2996 2993 2990 2986 2985 2982 2979 2976 2972 2968
3028 3028 3029 3028 3028 3028 3028 3028 3027 3026 3025 3024 3022 3021 3020 3018 3016 3015 3014 3012 3008 3005 3008 3006 3004 3003 3001 3000 2998 2995 2992 2989 2985 2981 2978 2976 2973 2970 2967 2962 2960 2956 2955
3019 3020 3021 3020 3020 3020 3020 3019 3018 3017 3016 3015 3014 3011 3009 3008 3006 3006 3004 3002 3000 2998 2998 2997 2995 2994 2991 2987 2983 2981 2978 2973 2970 2967 2964 2962 2958 2955 2951 2947 2946 2941 2940
3011 3012 3012 3012 3012 3012 3012 3012 3011 3010 3008 3007 3005 3002 3000 2999 2997 2996 2995 2993 2992 2989 2987 2985 2982 2979 2975 2973 2969 2965 2961 2958 2955 2953 2950 2946 2943 2940 2936 2934 2930 2927 2926
3004 3005 3006 3006 3006 3006 3005 3004 3003 3002 3000 2998 2996 2994 2991 2989 2989 2989 2987 2984 2982 2979 2976 2972 2968 2964 2960 2957 2954 2950 2947 2944 2942 2940 2937 2933 2930 2928 2925 2921 2918 2915 2913
2999 2999 2999 2999 2999 2998 2997 2996 2994 2993 2991 2989 2987 2985 2984 2983 2982 2980 2978 2975 2971 2967 2962 2958 2954 2951 2949 2946 2943 2939 2935 2932 2929 2925 2922 2919 2916 2914 2911 2908 2905 2902 2898
2993 2993 2992 2992 2991 2990 2989 2987 2986 2985 2983 2981 2979 2977 2976 2974 2971 2969 2965 2961 2957 2954 2952 2949 2947 2943 2938 2933 2929 2925 2921 2918 2914 2911 2907 2904 2902 2899 2896 2894 2891 2889 2888
2985 2985 2984 2983 2981 2980 2979 2977 2976 2975 2973 2971 2969 2968 2965 2962 2959 2956 2954 2951 2948 2945 2942 2938 2933 2928 2923 2918 2914 2910 2906 2903 2899 2896 2893 2890 2887 2885 2882 2879 2877 2874 2874
2978 2976 2975 2973 2972 2970 2969 2968 2967 2965 2965 2963 2961 2958 2956 2953 2950 2947 2944 2940 2936 2932 2928 2923 2918 2913 2909 2904 2900 2896 2892 2888 2885 2882 2879 2876 2873 2870 2867 2865 2861 2859 2857
2971 2969 2968 2966 2964 2962 2961 2960 2959 2958 2957 2955 2952 2950 2947 2943 2939 2935 2932 2927 2922 2918 2913 2908 2904 2899 2895 2890 2886 2882 2878 2875 2871 2868 2865 2862 2859 2856 2853 2850 2847 2843 2841
2964 2962 2960 2959 2956 2955 2954 2953 2952 2950 2948 2945 2943 2940 2936 2933 2929 2924 2920 2915 2910 2905 2900 2894 2890 2885 2881 2877 2872 2868 2864 2861 2857 2853 2850 2847 2843 2841 2838 2835 2832 2830 2828
2957 2955 2953 2952 2950 2948 2947 2945 2943 2941 2939 2936 2933 2930 2925 2922 2917 2913 2908 2903 2898 2892 2887 2882 2876 2871 2866 2861 2857 2853 2849 2845 2841 2838 2835 2832 2828 2826 2824 2821 2819 2817 2816
2952 2950 2948 2946 2944 2942 2941 2939 2937 2935 2932 2928 2925 2920 2916 2910 2905 2899 2894 2888 2883 2877 2871 2866 2861 2856 2851 2846 2842 2838 2834 2830 2827 2824 2821 2818 2815 2813 2812 2810 2808 2806 2805
2945 2943 2942 2941 2939 2937 2935 2933 2930 2927 2923 2919 2915 2910 2904 2899 2893 2886 2879 2873 2867 2861 2855 2850 2845 2840 2836 2831 2827 2823 2819 2816 2813 2810 2808 2806 2804 2802 2801 2800 2798 2797 2796
2940 2939 2937 2935 2933 2931 2928 2924 2921 2917 2912 2907 2902 2896 2890 2884 2877 2870 2864 2857 2851 2845 2840 2835 2830 2825 2821 2817 2814 2810 2807 2804 2801 2799 2797 2796 2794 2793 2792 2791 2790 2789 2788
2935 2934 2932 2929 2926 2922 2918 2915 2910 2905 2900 2894 2888 2881 2874 2868 2861 2855 2848 2842 2836 2830 2825 2821 2817 2813 2809 2805 2802 2800 2797 2795 2792 2791 2789 2788 2786 2785 2784 2783 2783 2782 2781
2931 2928 2925 2921 2917 2913 2909 2905 2900 2895 2889 2883 2876 2869 2862 2855 2849 2842 2836 2830 2825 2820 2816 2812 2808 2804 2801 2797 2794 2791 2789 2787 2785 2783 2781 2780 2780 2779 2777 2777 2776 2776 2776
2924 2920 2917 2913 2910 2905 2901 2896 2890 2884 2877 2871 2864 2857 2851 2845 2840 2834 2828 2823 2819 2814 2809 2805 2801 2797 2794 2791 2788 2784 2782 2779 2778 2776 2775 2775 2774 2772 2772 2771 2771 2771 2771
2917 2914 2910 2906 2902 2897 2892 2886 2880 2873 2868 2862 2856 2850 2845 2839 2833 2828 2823 2819 2814 2809 2805 2800 2796 2792 2789 2785 2782 2779 2777 2774 2773 2771 2770 2769 2768 2768 2767 2766 2766 2766 2767
2911 2907 2903 2899 2894 2888 2883 2878 2873 2868 2862 2856 2850 2844 2839 2835 2830 2825 2820 2815 2810 2806 2801 2797 2792 2788 2785 2781 2778 2776 2773 2771 2769 2767 2766 2765 2764 2763 2763 2763 2763 2763 2764